星链-5493 (STARLINK-5493 )

导读 | 豆包AI

STARLINK-5493是美国SpaceX公司星链星座的第二代卫星,于美国东部时间2023年1月26日由猎鹰9号火箭发射入轨。该卫星属于星链Gen2批次,运行在近地轨道,配备增强型相控阵天线与氪离子推进系统,支持激光星间通信,旨在为全球提供高速低延迟宽带互联网服务,是SpaceX构建大规模卫星互联网星座的重要组成部分。

Basic Information
目录编号:
55333
目录名称:
STARLINK-5493
国际标识:
2023-013C
轨道中心:
EARTH
卫星名称:
星链-5493
卫星全名:
星链-5493 (STARLINK-5493 )
卫星状态:
在轨 (已飞行1190 天)
发射日期:
2023-01-26 UTC
国别 :
美国 (US)
星等 :
--
Orbit Information
数据来源 国际轨道数据 AOE轨道数据
星历时间 2026-04-30T10:02:54+0800
13小时前
查看轨道信息
2026-04-28T17:00:00+0800
2天前
查看轨道信息
半长轴 6863.637km 6863.713km
偏心率 0.0001166 0.0000045
轨道倾角 43.005° 43.006°
近地点辐角 253.621° 351.356°
升交点赤经 13.165° 22.812°
平近点角 106.451° 317.171°
近地点 484.699km 485.545km
远地点 486.301km 485.607km
周期 94.317分钟 94.319分钟
每日圈数 15.267619 15.267368
Detailed Information
固有亮度:
5
最大亮度:
2.5
卫星平台:
Starlink v1.5
覆盖范围:
全球
运营商:
太空探索技术公司
运营商所在国:
美国
制造商(研发单位):
太空探索技术公司
制造商所在国:
美国
使用方式:
暂无
Satellite Introduction
星链(Starlink)计划是由太空探索技术公司(SpaceX)提出的一个巨型低轨卫星互联网星座项目,计划在2019年至2024年间在太空搭建由约1.2万颗卫星组成的“星链”网络,其中1584颗将部署在地球上空550千米处的近地轨道,并从2020年开始工作。该卫星仍在工作。
2D Orbit Map
3D Orbit Map
Orbit Altitude Analysis Chart
Orbit Inclination Analysis Chart
Orbit Comprehensive Analysis Chart
View Comprehensive Chart